Weather History for Sault Ste Marie, MI

Change the Weather History Date:

Wednesday, February 13, 2013

  Actual Average Record
Temperature  
Mean Temperature 26 °F 17 °F  
Max Temperature 36 °F 25 °F 42 °F (1890)
Min Temperature 15 °F 9 °F -27 °F (1970)
Degree Days  
Heating Degree Days 39 48  
Month to date heating degree days 674 635  
Since 1 July heating degree days 5057 5435  
Moisture  
Dew Point 19 °F    
Average Humidity 72    
Maximum Humidity 88    
Minimum Humidity 56    
Precipitation  
Precipitation 0.00 in 0.04 in 0.44 in (1985)
Month to date precipitation 1.09 0.64  
Year to date precipitation 4.38 2.83  
Snow  
Snow 0.00 in 0.70 in 5.10 in (1985)
Month to date snowfall 14.6 9.9  
Since 1 July snowfall 104.0 91.5  
Snow Depth 20.00 in    
Sea Level Pressure  
Sea Level Pressure 29.69 in    
Wind  
Wind Speed 3 mph (SE)    
Max Wind Speed 10 mph    
Max Gust Speed 14 mph    
Visibility 9 miles    
Events      
T = Trace of Precipitation, MM = Missing Value Source: NWS Daily Summary

Daily Weather History Graph

Daily Weather History Graph

Search for Another Location

Airport:

Trip Planner

Search our weather history database for the weather conditions in past years. The results will help you decide how hot, cold, wet, or windy it might be!

Date:

Astronomy

Feb. 13, 2013 Rise Set
Actual Time 7:43 AM EST 6:00 PM EST
Civil Twilight 7:12 AM EST 6:31 PM EST
Nautical Twilight 6:37 AM EST 7:06 PM EST
Astronomical Twilight 6:02 AM EST 7:41 PM EST
Moon 8:56 AM EST (2/13) 10:20 PM EST (2/13)
Length of Visible Light 11h 18m
Length of Day
10h 16m
Waxing Crescent, 13% of the Moon is Illuminated
Feb 13
Waxing Crescent
Feb 17
First Quarter
Feb 25
Full
Mar 4
Last Quarter
Mar 11
New

Hourly Weather History & Observations

Time (EST) Temp. Windchill Dew Point Humidity Pressure Visibility Wind Dir Wind Speed Gust Speed Precip Events Conditions
12:22 AM 19.0 °F 13.9 °F 12.9 °F 77% 29.76 in 10.0 mi SSE 3.5 mph - N/A   Overcast
12:55 AM 19.0 °F 13.9 °F 12.9 °F 77% 29.79 in 10.0 mi SSE 3.5 mph - N/A   Overcast
1:55 AM 17.1 °F 11.7 °F 10.9 °F 77% 29.76 in 10.0 mi SSE 3.5 mph - N/A   Overcast
2:55 AM 17.1 °F - 12.0 °F 81% 29.75 in 10.0 mi Calm Calm - N/A   Overcast
3:16 AM 17.1 °F 11.7 °F 12.0 °F 81% 29.72 in 10.0 mi East 3.5 mph - N/A   Overcast
3:48 AM 15.1 °F 9.4 °F 10.9 °F 84% 29.72 in 10.0 mi ENE 3.5 mph - N/A   Scattered Clouds
3:55 AM 15.1 °F 9.4 °F 10.9 °F 84% 29.75 in 10.0 mi NE 3.5 mph - N/A   Mostly Cloudy
4:55 AM 17.1 °F 11.7 °F 12.9 °F 84% 29.73 in 10.0 mi East 3.5 mph - N/A   Overcast
5:55 AM 18.0 °F 12.7 °F 14.0 °F 84% 29.71 in 10.0 mi East 3.5 mph - N/A   Overcast
6:55 AM 19.9 °F - 16.0 °F 85% 29.70 in 10.0 mi Calm Calm - N/A   Overcast
7:55 AM 21.0 °F - 17.1 °F 85% 29.69 in 10.0 mi Calm Calm - N/A   Overcast
8:22 AM 21.9 °F - 17.1 °F 82% 29.66 in 9.0 mi Calm Calm - N/A   Overcast
8:55 AM 21.9 °F - 18.0 °F 85% 29.68 in 8.0 mi Calm Calm - N/A   Overcast
9:32 AM 24.1 °F - 19.0 °F 81% 29.65 in 8.0 mi Calm Calm - N/A   Overcast
9:55 AM 25.0 °F - 19.9 °F 81% 29.68 in 8.0 mi Calm Calm - N/A   Overcast
10:43 AM 28.9 °F - 23.0 °F 78% 29.64 in 7.0 mi Calm Calm - N/A   Overcast
10:55 AM 28.0 °F - 21.9 °F 78% 29.67 in 8.0 mi Calm Calm - N/A   Overcast
11:32 AM 28.9 °F 22.8 °F 23.0 °F 78% 29.64 in 7.0 mi WSW 5.8 mph - N/A   Overcast
11:55 AM 30.0 °F 26.5 °F 23.0 °F 75% 29.66 in 8.0 mi Variable 3.5 mph - N/A   Overcast
12:25 PM 30.9 °F 25.2 °F 21.9 °F 69% 29.63 in 8.0 mi West 5.8 mph - N/A   Scattered Clouds
12:55 PM 30.9 °F 24.3 °F 21.0 °F 67% 29.65 in 9.0 mi West 6.9 mph - N/A   Partly Cloudy
1:55 PM 33.1 °F 26.1 °F 21.0 °F 61% 29.65 in 10.0 mi NW 8.1 mph - N/A   Clear
2:55 PM 33.1 °F 27.7 °F 21.0 °F 61% 29.64 in 10.0 mi NNW 5.8 mph - N/A   Mostly Cloudy
3:55 PM 35.1 °F 32.2 °F 21.0 °F 57% 29.65 in 10.0 mi Variable 3.5 mph - N/A   Overcast
4:55 PM 34.0 °F - 21.9 °F 61% 29.65 in 10.0 mi Calm Calm - N/A   Overcast
5:55 PM 32.0 °F - 21.0 °F 64% 29.65 in 9.0 mi Calm Calm - N/A   Partly Cloudy
6:55 PM 28.0 °F 24.2 °F 19.9 °F 72% 29.67 in 10.0 mi South 3.5 mph - N/A   Clear
7:55 PM 28.0 °F 21.7 °F 21.9 °F 78% 29.68 in 9.0 mi SW 5.8 mph - N/A   Clear
8:55 PM 25.0 °F 20.7 °F 21.0 °F 85% 29.68 in 7.0 mi ESE 3.5 mph - N/A   Mostly Cloudy
9:55 PM 28.0 °F 24.2 °F 24.1 °F 85% 29.67 in 6.0 mi ESE 3.5 mph - N/A   Overcast
10:55 PM 28.0 °F - 24.1 °F 85% 29.67 in 6.0 mi Calm Calm - N/A   Overcast
11:55 PM 28.9 °F 22.8 °F 25.0 °F 85% 29.66 in 6.0 mi ESE 5.8 mph - N/A   Overcast